This demonstration page uses our WeatherBlox Daily Observations layout. Learn more.

Hourly Observations for March 8, 2015

Temp ( °F °C ) Dew Point ( °F °C ) Humidity (%) Winds ( mph kmh ) Pressure ( in mb ) Visibility ( mi km ) Precip ( " mm )
12:15 am 00:15 Clear 37 3 21 -6 52 52 SSE 10 17 30.15 1021 10 16.0934 0 0
12:35 am 00:35 Clear 38 3.1 22 -5.6 53 53 SSE 10 17 30.15 1021 10 16.0934 0 0
12:55 am 00:55 Clear 37 2.7 22 -5.7 54 54 SSE 9 15 30.15 1021 10 16.0934 0 0
1:15 am 01:15 Clear 37 2.6 22 -5.8 54 54 SSE 7 11 30.15 1021 10 16.0934 0 0
1:35 am 01:35 Clear 37 2.8 22 -5.7 54 54 SSE 8 13 30.09 1019 10 16.0934 0 0
1:55 am 01:55 Clear 36 2.3 22 -5.7 56 56 S 8 13 30.12 1020 10 16.0934 0 0
3:15 am 03:15 Clear 36 2.4 22 -5.6 56 56 S 5 7 30.12 1020 10 16.0934 0 0
3:35 am 03:35 Clear 37 3 22 -5.3 55 55 S 9 15 30.09 1019 10 16.0934 0 0
3:55 am 03:55 Clear 37 3 22 -5.6 54 54 S 10 17 30.09 1019 10 16.0934 0 0
4:15 am 04:15 Clear 38 3.1 22 -5.4 54 54 S 10 17 30.06 1018 10 16.0934 0 0
4:35 am 04:35 Clear 37 2.8 22 -5.7 54 54 SSW 8 13 30.06 1018 10 16.0934 0 0
4:55 am 04:55 Clear 37 2.8 22 -5.8 54 54 SW 10 17 30.06 1018 10 16.0934 0 0
5:15 am 05:15 Clear 38 3.1 22 -5.7 53 53 SW 9 15 30.06 1018 10 16.0934 0 0
5:35 am 05:35 Clear 40 4.3 21 -6 47 47 WSW 7 11 30.06 1018 10 16.0934 0 0
5:55 am 05:55 Clear 41 4.8 21 -6.3 45 45 W 12 19 30.06 1018 10 16.0934 0 0
6:15 am 06:15 Clear 38 3.1 20 -6.6 49 49 W 8 13 30.06 1018 10 16.0934 0 0
6:35 am 06:35 Clear 34 1.2 19 -7 55 55 W 5 7 30.09 1019 10 16.0934 0 0
6:55 am 06:55 Clear 32 0 20 -6.8 61 61 WNW 7 11 30.12 1020 10 16.0934 0 0
7:15 am 07:15 Clear 34 0.9 20 -6.7 57 57 WNW 8 13 30.12 1020 10 16.0934 0 0
7:35 am 07:35 Clear 33 0.6 20 -6.5 59 59 NNW 9 15 30.12 1020 10 16.0934 0 0
7:55 am 07:55 Clear 34 1 21 -6.1 59 59 NNW 10 17 30.15 1021 10 16.0934 0 0
8:15 am 08:15 Sunny 35 1.6 21 -6.1 57 57 NNW 15 24 30.15 1021 10 16.0934 0 0
8:35 am 08:35 Sunny 35 1.9 21 -6 56 56 NNW 14 22 30.15 1021 10 16.0934 0 0
8:55 am 08:55 Sunny 35 1.8 22 -5.5 59 59 NNW 13 20 30.15 1021 10 16.0934 0 0
9:15 am 09:15 Sunny 36 2.2 23 -5.1 59 59 N 15 24 30.18 1022 10 16.0934 0 0
9:35 am 09:35 Sunny 37 2.7 23 -4.8 58 58 N 14 22 30.18 1022 10 16.0934 0 0
9:55 am 09:55 Sunny 38 3.4 24 -4.4 57 57 N 17 28 30.18 1022 10 16.0934 0 0
10:15 am 10:15 Sunny 40 4.2 25 -4 56 56 N 20 31 30.15 1021 10 16.0934 0 0
10:35 am 10:35 Sunny 41 5.1 26 -3.5 54 54 N 17 28 30.15 1021 10 16.0934 0 0
10:55 am 10:55 Sunny 43 5.9 26 -3.1 53 53 N 20 31 30.15 1021 10 16.0934 0 0
11:15 am 11:15 Sunny 44 6.6 27 -2.8 51 51 NNE 21 33 30.18 1022 10 16.0934 0 0
11:35 am 11:35 Sunny 45 7.1 27 -2.7 50 50 NNE 18 30 30.18 1022 10 16.0934 0 0
11:55 am 11:55 Sunny 46 7.7 27 -2.6 48 48 N 17 28 30.15 1021 10 16.0934 0 0
12:15 pm 12:15 Sunny 47 8.4 28 -2.5 47 47 N 20 31 30.15 1021 10 16.0934 0 0
12:35 pm 12:35 Sunny 48 8.7 28 -2.5 46 46 NNE 20 31 30.15 1021 10 16.0934 0 0
12:55 pm 12:55 Sunny 49 9.4 28 -2.1 45 45 NNE 21 33 30.15 1021 10 16.0934 0 0
1:15 pm 13:15 Sunny 49 9.6 28 -2.3 44 44 NNE 22 35 30.15 1021 10 16.0934 0 0
1:35 pm 13:35 Sunny 50 10.2 28 -2.3 42 42 N 20 31 30.15 1021 10 16.0934 0 0
2:15 pm 14:15 Sunny 52 11 27 -2.7 39 39 NNE 22 35 30.12 1020 10 16.0934 0 0
2:35 pm 14:35 Sunny 53 11.5 27 -3 36 36 NNE 21 33 30.09 1019 10 16.0934 0 0
2:55 pm 14:55 Sunny 53 11.8 27 -3 36 36 NNE 21 33 30.09 1019 10 16.0934 0 0
3:15 pm 15:15 Sunny 54 12.1 26 -3.1 35 35 NE 17 28 30.09 1019 10 16.0934 0 0
3:35 pm 15:35 Sunny 54 12.2 26 -3.1 35 35 NE 15 24 30.09 1019 10 16.0934 0 0
3:55 pm 15:55 Sunny 54 12.3 26 -3.3 34 34 NE 15 24 30.09 1019 10 16.0934 0 0
4:15 pm 16:15 Sunny 55 12.7 26 -3.1 33 33 NE 15 24 30.09 1019 10 16.0934 0 0
4:35 pm 16:35 Sunny 55 12.6 26 -3.5 33 33 NE 14 22 30.09 1019 10 16.0934 0 0
4:55 pm 16:55 Sunny 55 13 26 -3.6 32 32 NNE 10 17 30.09 1019 10 16.0934 0 0
5:15 pm 17:15 Sunny 56 13.1 25 -4 30 30 ENE 16 26 30.09 1019 10 16.0934 0 0
5:35 pm 17:35 Sunny 55 13 24 -4.3 30 30 NE 14 22 30.09 1019 10 16.0934 0 0
5:55 pm 17:55 Sunny 55 13 25 -4.1 30 30 NE 12 19 30.09 1019 10 16.0934 0 0
6:15 pm 18:15 Sunny 55 12.5 24 -4.5 31 31 NE 10 17 30.09 1019 10 16.0934 0 0
6:35 pm 18:35 Sunny 54 12.1 24 -4.7 31 31 ENE 12 19 30.09 1019 10 16.0934 0 0
6:55 pm 18:55 Sunny 53 11.4 24 -4.7 32 32 ENE 9 15 30.09 1019 10 16.0934 0 0
7:15 pm 19:15 Sunny 49 9.7 23 -5.2 35 35 ENE 7 11 30.12 1020 10 16.0934 0 0
7:35 pm 19:35 Sunny 47 8.4 23 -4.8 39 39 ENE 7 11 30.12 1020 10 16.0934 0 0
7:55 pm 19:55 Clear 43 6.1 23 -5 45 45 E 7 11 30.15 1021 10 16.0934 0 0
8:15 pm 20:15 Clear 43 6 23 -5 46 46 E 7 11 30.18 1022 10 16.0934 0 0
8:35 pm 20:35 Clear 42 5.4 23 -4.8 48 48 E 7 11 30.18 1022 10 16.0934 0 0
8:55 pm 20:55 Clear 38 3.5 21 -5.9 51 51 E 7 11 30.18 1022 10 16.0934 0 0
9:15 pm 21:15 Clear 36 2.1 20 -6.4 54 54 E 5 7 30.21 1023 10 16.0934 0 0
9:35 pm 21:35 Clear 36 2.4 22 -5.6 56 56 ESE 3 6 30.21 1023 10 16.0934 0 0
9:55 pm 21:55 Clear 33 0.8 21 -6.3 59 59 E 6 9 30.21 1023 10 16.0934 0 0
10:15 pm 22:15 Clear 37 2.5 24 -4.7 59 59 Calm 30.21 1023 10 16.0934 0 0
10:35 pm 22:35 Clear 36 2 23 -5.1 60 60 SE 3 6 30.21 1023 10 16.0934 0 0
10:55 pm 22:55 Clear 35 1.5 23 -5.1 62 62 SE 5 7 30.21 1023 10 16.0934 0 0
11:15 pm 23:15 Clear 33 0.7 23 -5.2 65 65 SE 3 6 30.21 1023 10 16.0934 0 0
11:35 pm 23:35 Clear 33 0.7 24 -4.6 68 68 SE 3 6 30.21 1023 10 16.0934 0 0
11:55 pm 23:55 Clear 33 0.4 24 -4.7 69 69 SSE 5 7 30.24 1024 10 16.0934 0 0

Powered by AerisWeather